Weather History for Boise, ID

Change the Weather History Date:

Monday, August 5, 2013

  Actual Average Record
Temperature  
Mean Temperature 80 °F 77 °F  
Max Temperature 97 °F 93 °F 106 °F (1990)
Min Temperature 62 °F 62 °F 45 °F (1896)
Degree Days  
Heating Degree Days 0 0  
Month to date heating degree days 0 0  
Since 1 June heating degree days 35 72  
Since 1 July heating degree days 0 8  
Cooling Degree Days 15 12  
Month to date cooling degree days 49 60  
Year to date cooling degree days 803 585  
Since 1 June cooling degree days 756 541  
Growing Degree Days 30 (Base 50)    
Moisture  
Dew Point 37 °F    
Average Humidity 27    
Maximum Humidity 44    
Minimum Humidity 10    
Precipitation  
Precipitation 0.00 in 0.01 in 0.39 in (1950)
Month to date precipitation T 0.04  
Year to date precipitation 4.46 7.30  
Snow  
Snow 0.00 in 0.00 in 0.00 in (2006)
Month to date snowfall 0.0 0.0  
Since 1 July snowfall 0.0 0.0  
Snow Depth 0.00 in    
Sea Level Pressure  
Sea Level Pressure 29.82 in    
Wind  
Wind Speed 6 mph (West)    
Max Wind Speed 16 mph    
Max Gust Speed 21 mph    
Visibility 10 miles    
Events      
T = Trace of Precipitation, MM = Missing Value Source: NWS Daily Summary

Daily Weather History Graph

Daily Weather History Graph

Search for Another Location

Airport:

Trip Planner

Search our weather history database for the weather conditions in past years. The results will help you decide how hot, cold, wet, or windy it might be!

Date:

Astronomy

Aug. 05, 2013 Rise Set
Actual Time 6:38 AM MDT 9:02 PM MDT
Civil Twilight 6:06 AM MDT 9:34 PM MDT
Nautical Twilight 5:26 AM MDT 10:13 PM MDT
Astronomical Twilight 4:42 AM MDT 10:58 PM MDT
Moon 5:38 AM MDT (8/5) 8:03 PM MDT (8/5)
Length of Visible Light 15h 27m
Length of Day
14h 23m
Waning Crescent, 1% of the Moon is Illuminated
Aug 5
Waning Crescent
Aug 6
New
Aug 14
First Quarter
Aug 20
Full
Aug 28
Last Quarter

Hourly Weather History & Observations

Time (MDT) Temp. Dew Point Humidity Pressure Visibility Wind Dir Wind Speed Gust Speed Precip Events Conditions
12:53 AM 73.9 °F 35.1 °F 24% 29.83 in 10.0 mi Calm Calm - N/A   Clear
1:53 AM 71.1 °F 33.1 °F 25% 29.83 in 10.0 mi SSE 4.6 mph - N/A   Clear
2:53 AM 71.1 °F 32.0 °F 24% 29.83 in 10.0 mi SE 6.9 mph - N/A   Clear
3:53 AM 69.1 °F 32.0 °F 25% 29.83 in 10.0 mi SSE 8.1 mph - N/A   Clear
4:53 AM 64.9 °F 36.0 °F 34% 29.83 in 10.0 mi SSW 5.8 mph - N/A   Clear
5:53 AM 64.9 °F 42.1 °F 43% 29.85 in 10.0 mi Calm Calm - N/A   Clear
6:53 AM 62.1 °F 36.0 °F 38% 29.85 in 10.0 mi SSE 6.9 mph - N/A   Clear
7:53 AM 64.9 °F 34.0 °F 32% 29.87 in 10.0 mi SW 4.6 mph - N/A   Clear
8:53 AM 73.9 °F 37.0 °F 26% 29.88 in 10.0 mi South 6.9 mph - N/A   Clear
9:53 AM 75.0 °F 43.0 °F 32% 29.89 in 10.0 mi West 4.6 mph - N/A   Clear
10:53 AM 80.1 °F 39.9 °F 24% 29.89 in 10.0 mi West 5.8 mph - N/A   Clear
11:53 AM 82.9 °F 39.0 °F 21% 29.89 in 10.0 mi West 4.6 mph - N/A   Clear
12:53 PM 87.1 °F 37.0 °F 17% 29.88 in 10.0 mi WNW 6.9 mph - N/A   Clear
1:53 PM 90.0 °F 35.1 °F 14% 29.86 in 10.0 mi WNW 6.9 mph - N/A   Clear
2:53 PM 91.9 °F 34.0 °F 13% 29.84 in 10.0 mi NW 10.4 mph - N/A   Clear
3:53 PM 93.9 °F 34.0 °F 12% 29.81 in 10.0 mi NW 5.8 mph 17.3 mph N/A   Clear
4:53 PM 95.0 °F 36.0 °F 13% 29.79 in 10.0 mi NNW 11.5 mph - N/A   Clear
5:53 PM 96.1 °F 34.0 °F 11% 29.76 in 10.0 mi NNW 12.7 mph - N/A   Clear
6:53 PM 96.1 °F 30.9 °F 10% 29.75 in 10.0 mi North 13.8 mph - N/A   Clear
7:53 PM 93.9 °F 30.9 °F 11% 29.73 in 10.0 mi North 9.2 mph - N/A   Clear
8:53 PM 89.1 °F 35.1 °F 15% 29.73 in 10.0 mi NNW 4.6 mph - N/A   Clear
9:53 PM 84.9 °F 37.0 °F 18% 29.76 in 10.0 mi Calm Calm - N/A   Clear
10:53 PM 80.1 °F 41.0 °F 25% 29.77 in 10.0 mi West 3.5 mph - N/A   Clear
11:53 PM 75.0 °F 43.0 °F 32% 29.78 in 10.0 mi SW 3.5 mph - N/A   Clear